Regional Weather Roundup
Issued by NWS

Home | Current Version | Previous Version | Graphics & Text | Print | Product List | Glossary On
Versions: 1 2 3 4 5 6 7 8 9 10 11 12 13 14 15 16 17 18 19 20 21 22 23 24 25 26 27 28 29 30 31 32 33 34 35 36 37 38 39 40 41 42 43 44 45 46 47 48 49 50
000
ASUS43 KBIS 181210
RWRND

NORTH DAKOTA REGIONAL WEATHER ROUNDUP
NATIONAL WEATHER SERVICE BISMARCK ND
700 AM CDT FRI AUG 18 2017

NOTE: "FAIR" INDICATES FEW OR NO CLOUDS BELOW 12,000 FEET WITH NO
SIGNIFICANT WEATHER AND/OR OBSTRUCTIONS TO VISIBILITY.


NDZ001>003-009>011-017-181300-
NORTHWEST NORTH DAKOTA

CITY           SKY/WX    TMP DP  RH WIND       PRES   REMARKS
WILLISTON      MOCLDY    59  55  87 NE5       29.96R
6HR MIN TEMP:  55; 6HR MAX TEMP:  61;

MINOT          CLEAR     58  55  90 S3        29.91R
MINOT AFB      CLEAR     53  51  93 NW9       29.90R
$$

NDZ018>021-031>035-040>046-181300-
SOUTHWEST NORTH DAKOTA

CITY           SKY/WX    TMP DP  RH WIND       PRES   REMARKS
BISMARCK       CLEAR     58  54  86 NW8       29.91R
6HR MIN TEMP:  58; 6HR MAX TEMP:  65;

DICKINSON      LGT RAIN  56  52  86 W5        29.97R
GARRISON         N/A     52  52 100 NW6       29.93S
6HR MIN TEMP:  51; 6HR MAX TEMP:  62;

HETTINGER ARPT PTCLDY    55  48  77 N12       30.01R
$$

NDZ004>008-012>016-024-026-027-054-181300-
NORTHEAST NORTH DAKOTA

CITY           SKY/WX    TMP DP  RH WIND       PRES   REMARKS
GRAND FORKS    PTCLDY    57  56  96 W6        29.84R
GRND FRKS AFB  PTCLDY    57  55  94 VRB5      29.83S
DEVILS LAKE    CLOUDY    63  59  87 W8        29.90S
$$

NDZ022-023-025-028>030-036>039-047>053-181300-
SOUTHEAST NORTH DAKOTA

CITY           SKY/WX    TMP DP  RH WIND       PRES   REMARKS
FARGO          CLOUDY    62  59  90 SE5       29.82F
6HR MIN TEMP:  60; 6HR MAX TEMP:  66;

JAMESTOWN      CLOUDY    61  58  90 CALM      29.85F
$$





USA.gov is the U.S. government's official web portal to all federal, state and local government web resources and services.